Regional Weather Roundup
Issued by NWS

Home | Current Version | Previous Version | Graphics & Text | Print | Product List | Glossary On
Versions: 1 2 3 4 5 6 7 8 9 10 11 12 13 14 15 16 17 18 19 20 21 22 23 24 25 26 27 28 29 30 31 32 33 34 35 36 37 38 39 40 41 42 43 44 45 46 47 48 49 50
000
ASUS43 KMPX 290901
RWRMN
WEATHER ROUNDUP FOR MINNESOTA
NATIONAL WEATHER SERVICE TWIN CITIES/CHANHASSEN MN
300 AM CST THU JAN 29 2015


NOTE: "FAIR" INDICATES FEW OR NO CLOUDS BELOW 12,000 FEET WITH NO
SIGNIFICANT WEATHER AND/OR OBSTRUCTIONS TO VISIBILITY. N/A MEANS
CURRENT SKY AND/OR WEATHER CONDITIONS ARE NOT AVAILABLE.

MNZ060>063-068>070-291000-
   Twin Cities Metro

CITY           SKY/WX    TMP DP  RH WIND       PRES   REMARKS
TWIN CITIES    CLOUDY    32  29  88 NW14      29.91R FOG     WCI  22
ST PAUL        CLOUDY    32  30  92 NW13      29.92R WCI  22
CRYSTAL        CLOUDY    33  30  88 NW10      29.91R FOG     WCI  25
BLAINE         CLOUDY    34  34 100 NW10      29.91R FOG     WCI  26
LAKEVILLE      CLOUDY    30  28  93 NW12G20   29.90R FOG     WCI  21
EDEN PRAIRIE   CLOUDY    33  30  88 NW14      29.91R FOG     WCI  23
SOUTH ST PAUL  CLOUDY    33  31  94 NW10      29.90S FOG     WCI  24
LAKE ELMO      CLOUDY    32  32 100 NW9       29.90R FOG     WCI  24
$$
MNZ001>005-007-008-013>017-022>024-027-028-291000-
   Northwest Minnesota

CITY           SKY/WX    TMP DP  RH WIND       PRES   REMARKS
BEMIDJI        CLOUDY    24  23  95 NW18G25   30.02R WCI  10
HALLOCK        CLOUDY    16  10  79 NW24G33   30.22R WCI  -3
ROSEAU         CLOUDY    18  14  86 NW17      30.12R WCI   2
WARROAD        CLOUDY    18  14  86 NW17G25   30.10R WCI   2
THIEF RVR FALL CLOUDY    18  14  86 NW23      30.14R WCI   0
CROOKSTON      CLOUDY    18  18 100 N26G35    30.21R WCI  -1
FOSSTON        CLOUDY    16  16 100 NW16G23   30.12R WCI   0
DETROIT LAKES  CLOUDY    23  21  93 NW20G26   30.10R WCI   8
MOORHEAD       CLOUDY    27  25  93 NW23      30.18R WCI  12
PARK RAPIDS    CLOUDY    26  22  84 NW22G28   30.01R WCI  12
MAHNOMEN       CLOUDY    20  18  94 NW17      30.10R WCI   5
$$
MNZ006-009>011-018-025>026-291000-
   North Central Minnesota

CITY           SKY/WX    TMP DP  RH WIND       PRES   REMARKS
BAUDETTE       CLOUDY    20  17  88 NW22G30   30.04R WCI   3
FLAG ISLAND    CLOUDY    18  16  93 NW24      30.07R WCI   0
INTL FALLS     CLOUDY    26  21  81 NW22      29.96R WCI  12
WASKISH        CLOUDY    25  21  86 NW15      30.04R WCI  12
BIG FORK       CLOUDY    28  25  86 NW12G21   29.95R WCI  18
LONGVILLE      CLOUDY    28  27  93 NW10G23   29.96R WCI  19
GRAND RAPIDS   CLOUDY    28  23  80 N26G35    29.92R WCI  13
CRANE LAKE     CLOUDY    27  23  86 NW8       29.93R WCI  18
ORR            CLOUDY    27  21  80 NW14G25   29.89R WCI  15
COOK           CLOUDY    27  23  86 NW12G22   29.91R WCI  16
WALKER         CLOUDY    26  24  94 NW10G20   29.98R WCI  16
$$
MNZ012-019>021-037-291000-
   Northeast Minnesota

CITY           SKY/WX    TMP DP  RH WIND       PRES   REMARKS
DULUTH         FLURRIES  30  25  81 N18G29    29.83R WCI  18
ELY            CLOUDY    27  23  86 NW12      29.85R WCI  16
HIBBING        CLOUDY    29  24  82 NW24      29.89R WCI  15
EVELETH        CLOUDY    30  27  86 NW12G25   29.88R WCI  21
DULUTH HARBOR  CLOUDY    34  28  80 N12       29.88R WCI  25
TWO HARBORS    CLOUDY    34  27  75 NW8G16    29.82R WCI  27
SILVER BAY     CLOUDY    30  25  80 NW6G25    29.81R WCI  24
GRAND MARAIS     N/A     30  24  78 NW8       29.81R WCI  22
G MARAIS ARPRT   N/A     25  19  80 NW16G29   29.75R WCI  12
$$
MNZ029>031-032-039>041-046>048-054>057-064-291000-
   West Central Minnesota

CITY           SKY/WX    TMP DP  RH WIND       PRES   REMARKS
FERGUS FALLS   CLOUDY    25  23  93 N29G38    30.14R WCI   8
WHEATON        CLOUDY    27  23  86 NW23G35   30.16R WCI  12
MORRIS         CLOUDY    28  27  93 NW33G41   30.07R WCI  12
ALEXANDRIA     CLOUDY    27  24  89 N22G32    30.03R WCI  13
ELBOW LAKE     CLOUDY    26  24  93 NW26G36   30.09R WCI  10
WADENA         CLOUDY    25  23  93 NW16G24   30.03R WCI  12
GLENWOOD       CLOUDY    27  27 100 NW28      30.02R WCI  11
APPLETON       CLOUDY    30  27  86 NW30G37   30.11R WCI  15
BENSON         CLOUDY    30  27  86 N22G36    30.07R WCI  17
ORTONVILLE     CLOUDY    28  25  86 NW22G32   30.12R WCI  15
MADISON        CLOUDY    34  30  86 NW25G36   30.10R WCI  21
WILLMAR        CLOUDY    30  28  93 NW31G39   30.03R WCI  15
$$
MNZ033>034-036-042>043-049>051-058-059-291000-
   Central Minnesota

CITY           SKY/WX    TMP DP  RH WIND       PRES   REMARKS
ST CLOUD       CLOUDY    33  30  88 NW14G22   29.93R WCI  23
SAUK CENTRE    CLOUDY    28  26  93 NW22G31   30.01R WCI  13
PAYNESVILLE    CLOUDY    27  26  96 W22G30    30.00R WCI  13
AITKIN         CLOUDY    34  27  75 NW15G25   29.91R WCI  24
PINE RIVER     CLOUDY    28  27  93 NW10G21   30.00R WCI  19
BRAINERD       LGT SNOW  31  28  89 N15G26    29.95R FOG     WCI  20
STAPLES        CLOUDY    27  25  93 NW17G26   30.00R WCI  14
LONG PRAIRIE   CLOUDY    27  27 100 W18G26    30.00R WCI  13
LITTLE FALLS   CLOUDY    32  28  86 NW13G21   29.97R WCI  22
LITCHFIELD     CLOUDY    34  32  93 NW20G28   29.97R WCI  22
BUFFALO        CLOUDY    33  31  93 NW10      29.94R WCI  25
MAPLE LAKE     CLOUDY    34  33  96 NW10G16   29.95R WCI  26
$$
MNZ037-044-045-052-053-291000-
   East Central Minnesota

CITY           SKY/WX    TMP DP  RH WIND       PRES   REMARKS
PRINCETON      CLOUDY    34  32  93 NW9       29.92R WCI  26
MORA           CLOUDY    32  30  93 NW12G18   29.91R WCI  23
CAMBRIDGE      CLOUDY    34  27  75 NW8       29.89R HAZE    WCI  27
RUSH CITY      CLOUDY    31  30  94 NW7       29.89S WCI  25
MOOSE LAKE     CLOUDY    32  28  86 N12G20    29.87R WCI  23
HINCKLEY       CLOUDY    32  32 100 NW13G18   29.89R WCI  22
CLOQUET        CLOUDY    30  27  86 NW15G25   29.86R WCI  19
MCGREGOR       CLOUDY    32  30  93 NW26      29.91R WCI  18
$$
MNZ071>073-080-081-089-090-097-098-291000-
   Southwest Minnesota

CITY           SKY/WX    TMP DP  RH WIND       PRES   REMARKS
MONTEVIDEO     CLOUDY    30  28  93 N29G43    30.08R WCI  15
GRANITE FALLS  CLOUDY    31  28  88 NW23G32   30.07R WCI  18
CANBY          CLOUDY    32  28  86 NW23G31   30.11R WCI  19
MARSHALL       CLOUDY    30  23  74 N33G43    30.07R WCI  14
REDWOOD FALLS  CLOUDY    33  28  81 NW20G37   30.02R WCI  21
OLIVIA         CLOUDY    30  30 100 NW30G36   30.01R WCI  15
PIPESTONE      CLOUDY    32  28  86 N18G38    30.06R WCI  20
WINDOM         CLOUDY    30  30 100 NW31G37   30.00R WCI  15
WORTHINGTON    CLOUDY   N/A N/A N/A NW29G43   30.03R
JACKSON        LGT SNOW  32  30  93 NW33G46   29.99R WCI  17
TRACY          CLOUDY    32  29  88 N26G39    30.05R WCI  18
SLAYTON        CLOUDY    30  28  90 NW24G37   30.05R WCI  16
$$
MNZ065>067-074>077-082>085-091>093-291000-
   South Central Minnesota

CITY           SKY/WX    TMP DP  RH WIND       PRES   REMARKS
MANKATO        CLOUDY    34  28  80 NW17      29.94R WCI  23
NEW ULM        CLOUDY    32  30  93 NW23G30   29.98R WCI  19
ST JAMES       CLOUDY    34  30  86 NW26G32   29.99R WCI  21
FAIRMONT       CLOUDY    34  28  80 NW24G30   29.95R WCI  21
GLENCOE        CLOUDY    35  33  93 NW15      29.95R WCI  25
FARIBAULT      CLOUDY    32  30  93 NW10G16   29.92R FOG     WCI  24
OWATONNA       CLOUDY    32  30  93 NW17      29.91R FOG     WCI  21
WASECA         CLOUDY    32  30  93 NW14G20   29.94R FOG     WCI  22
ALBERT LEA     CLOUDY    32  32 100 NW9G20    29.89R FOG     WCI  24
$$
MNZ078>079-086>088-094>096-291000-
   Southeast Minnesota

CITY           SKY/WX    TMP DP  RH WIND       PRES   REMARKS
ROCHESTER      CLOUDY    30  28  92 N23       29.85R FOG     WCI  17
RED WING       CLOUDY    32  28  86 NW8       29.88S FOG     WCI  25
DODGE CENTER   FOG       30  30 100 NW17G23   29.87R VSB 1   WCI  18
WINONA         CLOUDY    32  30  93 NW14      29.86S WCI  22
AUSTIN         CLOUDY    30  28  93 NW20G26   29.87R FOG     WCI  18
PRESTON        CLOUDY    30  28  91 N14G28    29.84R FOG     WCI  19
$$
ABBREVIATIONS USED IN REMARKS
   TC - TEMPERATURES IN CELSIUS
  WCI - WIND CHILL INDEX
   HX - HEAT INDEX
  VSB - VISIBILITY
$$



USA.gov is the U.S. government's official web portal to all federal, state and local government web resources and services.